[[{"header":{"parameterUnit":"m.s-1","parameterCategory":1,"la1":30.2991,"la2":30.254,"lo1":-89.0895,"lo2":-89.0444,"dy":0.0017,"dx":0.0017,"nx":28,"ny":28,"refTime":"2024-04-19T09:00:00:Z","depth":0,"parameterNumber":2,"parameterNumberName":"U-component_of_WINDS"},"data":[0,0,0,0,0,0,0,0,0,0,0,0,0,0,0,0,0,0,0,0,0,0,0,0,0,0,0,0,0,0,0,0,0,0,0,0,0,0,0,0,0,0,0,0,0,0,0,0,0,0,0,0,0,0,0,0,0,0,-0.1271,-0.127,0,-0.1171,-0.117,-0.1169,-0.1124,-0.1125,-0.1125,-0.1125,-0.1023,-0.102,-0.1017,0,0,0,0,0,0,0,0,0,0,0,0,0,-0.1424,-0.1421,-0.1271,-0.1269,-0.1268,-0.1171,-0.117,-0.1168,-0.1124,-0.1125,-0.1125,-0.1125,-0.1023,-0.102,-0.1017,0,0,0,0,0,0,0,0,0,0,0,0,0,-0.1344,-0.1421,-0.1271,-0.1235,-0.123,-0.1171,-0.117,-0.1168,-0.1124,-0.1125,-0.1125,-0.1125,-0.1025,-0.102,-0.1016,-0.0986,0,0,-0.1003,-0.1001,0,0,0,0,0,0,0,0,-0.1349,-0.1339,-0.1241,-0.1237,-0.1232,-0.116,-0.1186,-0.1107,-0.1124,-0.1165,-0.1125,-0.1125,-0.1068,-0.106,-0.1041,-0.0981,-0.0977,-0.1003,-0.1,-0.0998,-0.0997,0,0,0,0,0,0,0,-0.1354,-0.1343,-0.1231,-0.124,-0.1234,-0.1224,-0.1212,-0.1171,-0.1117,-0.1161,-0.1158,-0.1146,-0.1066,-0.1045,-0.1038,-0.0975,-0.1003,-0.0999,-0.0996,-0.0995,-0.0887,-0.0886,0,0,0,0,0,0,-0.1366,-0.1348,-0.1234,-0.1228,-0.1292,-0.1221,-0.1208,-0.1183,-0.1117,-0.1107,-0.1146,-0.1145,-0.1053,-0.1044,-0.1035,-0.0995,-0.0998,-0.0994,-0.0992,-0.0887,-0.0887,-0.0886,0,0,0,0,0,0,-0.1369,-0.1356,-0.1238,-0.1287,-0.1271,-0.1218,-0.119,-0.1181,-0.1161,-0.1106,-0.1096,-0.1136,-0.1052,-0.1041,-0.0999,-0.0991,-0.0992,-0.0989,-0.0887,-0.0887,-0.0886,-0.0916,0,0,0,0,0,0,-0.1374,-0.1358,-0.1345,-0.1287,-0.1269,-0.1204,-0.119,-0.1179,-0.1153,-0.115,-0.1093,-0.1084,-0.1052,-0.1005,-0.0994,-0.0985,-0.0985,-0.0888,-0.0887,-0.0887,-0.0916,-0.0917,-0.0918,0,0,0,0,0,-0.138,-0.1357,-0.1345,-0.1331,-0.1252,-0.1203,-0.1193,-0.1157,-0.1153,-0.114,-0.1105,-0.1085,-0.0994,-0.1001,-0.0989,-0.0978,-0.0888,-0.0887,-0.0887,-0.0915,-0.0917,-0.0918,0,0,0,0,0,0,-0.1416,-0.1349,-0.1334,-0.1293,-0.1254,-0.1196,-0.1179,-0.1159,-0.1121,-0.112,-0.1076,-0.1064,-0.1026,-0.0998,-0.1007,-0.0946,-0.0939,-0.0936,-0.0965,-0.0966,-0.0967,-0.0975,-0.0982,0,0,0,0,0,-0.1419,-0.1385,-0.1328,-0.1297,-0.1279,-0.1232,-0.121,-0.1185,-0.1144,-0.1127,-0.1089,-0.1049,-0.1012,-0.0988,-0.095,-0.0912,-0.0899,-0.0899,-0.09,-0.0901,-0.0898,-0.0877,-0.0876,-0.0884,-0.0884,-0.0884,0,0,-0.1425,-0.1384,-0.1365,-0.1304,-0.1271,-0.1237,-0.1219,-0.1183,-0.1158,-0.1121,-0.1079,-0.105,-0.1003,-0.0964,-0.0944,-0.0939,-0.0894,-0.09,-0.0901,-0.0898,-0.0876,-0.0876,-0.0875,-0.0883,-0.0884,-0.0884,0,0,-0.1419,-0.1385,-0.1355,-0.1323,-0.1274,-0.1243,-0.1236,-0.1181,-0.1161,-0.1118,-0.1091,-0.106,-0.0996,-0.0964,-0.0939,-0.0923,-0.0903,-0.0912,-0.0917,-0.0897,-0.0896,-0.0895,-0.089,-0.0888,-0.0909,-0.091,-0.091,0,-0.1432,-0.138,-0.1342,-0.1308,-0.1282,-0.1249,-0.1219,-0.119,-0.1131,-0.1114,-0.1109,-0.1029,-0.0995,-0.0948,-0.0944,-0.0925,-0.0916,-0.0917,-0.0899,-0.0898,-0.0897,-0.0891,-0.0889,-0.0911,-0.0911,-0.0911,-0.091,0,-0.1399,-0.1363,-0.1345,-0.129,-0.1262,-0.123,-0.1188,-0.1165,-0.1143,-0.1114,-0.1071,-0.103,-0.0983,-0.0971,-0.0949,-0.092,-0.0919,-0.0908,-0.09,-0.0898,-0.0892,-0.0889,-0.0913,-0.0912,-0.0912,-0.0912,0,0,-0.1411,-0.1336,-0.133,-0.1305,-0.1249,-0.1221,-0.1189,-0.1143,-0.1124,-0.1085,-0.1057,-0.1005,-0.0994,-0.0966,-0.0941,-0.0924,-0.0914,-0.0914,-0.0912,-0.0916,-0.088,-0.0889,-0.0887,-0.0901,-0.09,-0.09,-0.0884,0,-0.1397,-0.1337,-0.1303,-0.1257,-0.1223,-0.1192,-0.1164,-0.1127,-0.1099,-0.1067,-0.1036,-0.1,-0.0988,-0.0972,-0.0953,-0.0919,-0.0906,-0.092,-0.0874,-0.0873,-0.0886,-0.0883,-0.0892,-0.0879,-0.0881,-0.0881,-0.0881,0,-0.1372,-0.1334,-0.1285,-0.1234,-0.1218,-0.1193,-0.115,-0.112,-0.1078,-0.1059,-0.1029,-0.1004,-0.0969,-0.0965,-0.0917,-0.0927,-0.0907,-0.0888,-0.0886,-0.088,-0.0876,-0.0877,-0.0874,-0.0872,-0.0876,-0.0877,-0.0877,0,-0.1386,-0.1322,-0.1285,-0.1264,-0.1204,-0.1187,-0.1161,-0.1119,-0.1095,-0.1057,-0.1041,-0.1,-0.0978,-0.0947,-0.0912,-0.0912,-0.0867,-0.086,-0.0851,-0.0851,-0.0841,-0.0842,-0.0835,-0.083,-0.083,-0.083,-0.083,0,-0.1373,-0.1344,-0.129,-0.1267,-0.1234,-0.1196,-0.1165,-0.1137,-0.11,-0.1071,-0.1042,-0.1016,-0.0972,-0.094,-0.0913,-0.0877,-0.0868,-0.0851,-0.0844,-0.0853,-0.0856,-0.0839,-0.0839,-0.0829,-0.0829,-0.0829,-0.0829,0,-0.1382,-0.1345,-0.1302,-0.1249,-0.1235,-0.1213,-0.1167,-0.1144,-0.1115,-0.1079,-0.1069,-0.1024,-0.0985,-0.0948,-0.0896,-0.0878,-0.0843,-0.0834,-0.0857,-0.0853,-0.0845,-0.0847,-0.0826,-0.0822,-0.082,-0.082,-0.082,0,-0.1376,-0.1353,-0.1298,-0.1276,-0.1251,-0.1217,-0.1192,-0.1155,-0.113,-0.1081,-0.1064,-0.1024,-0.0989,-0.093,-0.0892,-0.0853,-0.0843,-0.0838,-0.0836,-0.0847,-0.0842,-0.0844,-0.0842,-0.0839,-0.0839,-0.0839,-0.084,0,-0.1369,-0.1352,-0.1317,-0.1276,-0.1248,-0.1214,-0.1179,-0.1163,-0.1119,-0.1093,-0.1053,-0.1027,-0.0975,-0.0935,-0.0892,-0.0866,-0.0845,-0.0841,-0.0836,-0.0845,-0.086,-0.0852,-0.0859,-0.0841,-0.0841,-0.0841,-0.0841,-0.0841,-0.137,-0.1349,-0.1307,-0.1269,-0.1239,-0.1207,-0.1183,-0.1152,-0.1118,-0.1073,-0.1053,-0.1013,-0.0973,-0.0913,-0.0887,-0.0856,-0.0851,-0.0845,-0.0843,-0.0842,-0.0844,-0.0866,-0.0848,-0.0848,-0.0848,-0.0848,-0.0848,0,-0.1362,-0.1334,-0.13,-0.1252,-0.1223,-0.1207,-0.1167,-0.1144,-0.111,-0.1074,-0.1041,-0.0996,-0.0958,-0.0919,-0.0879,-0.0861,-0.0851,-0.0852,-0.0853,-0.0847,-0.0851,-0.0859,-0.0861,-0.0861,-0.0861,-0.0861,-0.0861,-0.0861,-0.1354,-0.1317,-0.1295,-0.1244,-0.1215,-0.1176,-0.1156,-0.1127,-0.1098,-0.1049,-0.1018,-0.0992,-0.0955,-0.0912,-0.0877,-0.0866,-0.0853,-0.0856,-0.0843,-0.0847,-0.0847,-0.0846,-0.0853,-0.0854,-0.0854,-0.0842,-0.0842,-0.0842]},{"header":{"parameterUnit":"m.s-1","parameterCategory":1,"la1":30.2991,"la2":30.254,"lo1":-89.0895,"lo2":-89.0444,"dy":0.0017,"dx":0.0017,"nx":28,"ny":28,"refTime":"2024-04-19T09:00:00:Z","depth":0,"parameterNumber":3,"parameterNumberName":"V-component_of_WINDS"},"data":[0,0,0,0,0,0,0,0,0,0,0,0,0,0,0,0,0,0,0,0,0,0,0,0,0,0,0,0,0,0,0,0,0,0,0,0,0,0,0,0,0,0,0,0,0,0,0,0,0,0,0,0,0,0,0,0,0,0,3.8088,3.8088,0,3.8074,3.8073,3.8073,3.8089,3.809,3.8091,3.8091,3.8072,3.8071,3.807,0,0,0,0,0,0,0,0,0,0,0,0,0,3.8127,3.8126,3.8088,3.8088,3.8088,3.8074,3.8073,3.8073,3.8089,3.809,3.8091,3.8092,3.8072,3.8071,3.8069,0,0,0,0,0,0,0,0,0,0,0,0,0,3.8111,3.8126,3.8088,3.8094,3.8095,3.8074,3.8073,3.8073,3.8089,3.809,3.8091,3.8092,3.8073,3.8071,3.8069,3.804,0,0,3.8064,3.8064,0,0,0,0,0,0,0,0,3.8112,3.811,3.8094,3.8094,3.8094,3.8084,3.808,3.8062,3.8089,3.8091,3.8091,3.8092,3.8075,3.8073,3.8068,3.8039,3.8038,3.8064,3.8063,3.8062,3.8062,0,0,0,0,0,0,0,3.8113,3.811,3.8082,3.8093,3.8094,3.8097,3.8096,3.8077,3.8078,3.8091,3.8092,3.809,3.8075,3.807,3.8068,3.8038,3.8064,3.8063,3.8062,3.8061,3.7986,3.7985,0,0,0,0,0,0,3.8114,3.8111,3.8083,3.8082,3.8106,3.8095,3.8094,3.8087,3.8078,3.8078,3.809,3.8091,3.8072,3.807,3.8067,3.8033,3.8062,3.8061,3.806,3.7987,3.7985,3.7984,0,0,0,0,0,0,3.8115,3.8111,3.8084,3.8097,3.8094,3.8094,3.8085,3.8086,3.808,3.8077,3.8077,3.8084,3.8073,3.8069,3.8047,3.8033,3.806,3.8059,3.7988,3.7986,3.7985,3.7965,0,0,0,0,0,0,3.8116,3.8112,3.8101,3.8097,3.8093,3.8065,3.8084,3.8085,3.8078,3.808,3.8072,3.8071,3.8073,3.805,3.8046,3.8031,3.8057,3.7989,3.7987,3.7985,3.7966,3.7963,3.7959,0,0,0,0,0,3.8117,3.8095,3.8101,3.8097,3.808,3.8064,3.8062,3.8066,3.8077,3.8066,3.8064,3.8072,3.8035,3.8047,3.8043,3.8027,3.799,3.7988,3.7985,3.7968,3.7963,3.7959,0,0,0,0,0,0,3.8096,3.8094,3.8101,3.8076,3.8071,3.8067,3.8053,3.806,3.805,3.8052,3.8056,3.8054,3.803,3.8027,3.804,3.7999,3.8014,3.8011,3.8003,3.7998,3.7994,3.7996,3.8056,0,0,0,0,0,3.8089,3.8077,3.8076,3.8054,3.8051,3.8053,3.8046,3.805,3.8043,3.804,3.8036,3.8028,3.8015,3.8006,3.7994,3.7966,3.7965,3.7953,3.795,3.7947,3.7944,3.7929,3.7924,3.7977,3.7977,3.7977,0,0,3.8073,3.8071,3.8063,3.805,3.8046,3.8033,3.805,3.8035,3.8025,3.8037,3.8017,3.8014,3.8005,3.798,3.7969,3.7976,3.7929,3.7944,3.7941,3.794,3.7926,3.7922,3.7917,3.7975,3.7976,3.7976,0,0,3.8038,3.8035,3.8018,3.8014,3.8008,3.8009,3.8005,3.8,3.8,3.7979,3.7988,3.7976,3.7953,3.7947,3.7941,3.7905,3.7911,3.7901,3.7881,3.7867,3.7863,3.7859,3.7847,3.7842,3.7898,3.7898,3.7898,0,3.8019,3.8001,3.8007,3.7992,3.7986,3.7998,3.798,3.7976,3.7965,3.796,3.7969,3.7942,3.7937,3.7911,3.7903,3.7897,3.7892,3.7901,3.7863,3.786,3.7856,3.7844,3.784,3.7896,3.7896,3.7897,3.7897,0,3.7977,3.7965,3.7951,3.7943,3.7936,3.7919,3.7922,3.7914,3.7919,3.7919,3.7898,3.7893,3.788,3.7874,3.7878,3.7849,3.7854,3.7863,3.7878,3.785,3.7839,3.7834,3.7895,3.7895,3.7895,3.7896,0,0,3.7927,3.7925,3.7919,3.7916,3.7911,3.7901,3.7885,3.7874,3.7867,3.786,3.7846,3.7827,3.7836,3.7829,3.7832,3.782,3.7792,3.783,3.783,3.7823,3.7761,3.7754,3.7749,3.7797,3.7796,3.7795,3.7761,0,3.7893,3.7867,3.7873,3.7846,3.7835,3.7846,3.7832,3.7827,3.7827,3.7817,3.7816,3.7803,3.7815,3.7811,3.78,3.7798,3.778,3.7801,3.7783,3.7783,3.7785,3.7743,3.7735,3.7704,3.7757,3.7756,3.7756,0,3.7848,3.7841,3.7814,3.7813,3.7808,3.7795,3.7787,3.7776,3.7771,3.7772,3.7765,3.7771,3.7754,3.777,3.7747,3.7761,3.7754,3.7753,3.7752,3.775,3.7767,3.774,3.7694,3.7689,3.7749,3.775,3.775,0,3.7815,3.7799,3.7781,3.7778,3.7775,3.7766,3.7764,3.776,3.7753,3.7745,3.7741,3.773,3.7724,3.7716,3.7718,3.7729,3.7695,3.771,3.7694,3.7694,3.7686,3.7686,3.7638,3.7682,3.7682,3.7682,3.7682,0,3.7775,3.7758,3.7766,3.7755,3.7736,3.7743,3.7724,3.7724,3.772,3.7708,3.7717,3.7706,3.771,3.7699,3.7701,3.7682,3.7679,3.7679,3.7679,3.7678,3.7678,3.7673,3.7675,3.7681,3.7681,3.7681,3.7682,0,3.7735,3.7739,3.7721,3.772,3.772,3.7706,3.7705,3.7694,3.7696,3.7681,3.7678,3.7679,3.7667,3.7669,3.7654,3.7656,3.7632,3.7635,3.7634,3.7635,3.7619,3.762,3.7565,3.7559,3.7607,3.7606,3.7606,0,3.7709,3.7697,3.7695,3.7689,3.7687,3.7677,3.7671,3.7677,3.767,3.7664,3.7654,3.7643,3.7634,3.7613,3.7612,3.7601,3.7604,3.7586,3.7602,3.7602,3.7604,3.7605,3.7604,3.7582,3.7582,3.7581,3.7581,0,3.7663,3.7666,3.7658,3.7651,3.7644,3.7638,3.7633,3.7627,3.7633,3.7625,3.7613,3.7607,3.7593,3.7581,3.7572,3.7569,3.7575,3.7576,3.7572,3.757,3.757,3.757,3.7625,3.7577,3.7577,3.7578,3.7578,3.7578,3.7629,3.7619,3.7617,3.7608,3.7605,3.7601,3.7591,3.7592,3.7583,3.7573,3.7577,3.7564,3.7559,3.7547,3.7543,3.7532,3.7539,3.7532,3.7531,3.7529,3.7528,3.7572,3.753,3.753,3.753,3.7531,3.7531,0,3.7584,3.7584,3.7576,3.7569,3.7562,3.7571,3.7566,3.7559,3.7548,3.7544,3.7535,3.7522,3.7511,3.751,3.75,3.7491,3.7494,3.7488,3.7489,3.7488,3.7522,3.7527,3.7486,3.7486,3.7486,3.7486,3.7486,3.7486,3.756,3.7544,3.7547,3.7529,3.7529,3.7517,3.7514,3.7509,3.7506,3.7491,3.7483,3.7483,3.748,3.747,3.7461,3.746,3.7456,3.7449,3.745,3.7481,3.7486,3.749,3.7495,3.7448,3.7448,3.7417,3.7417,3.7417]}]]